This is the latest recevied weather packets stored in our database for station/object KB3VSP. If no packets are shown the sender has not sent any weather packets the latest 10 day(s).
| Time | Temp. | Humidity | Pressure | Rain* | Wind** | Luminosity | Snow |
|---|---|---|---|---|---|---|---|
| 1778013453 | 21.67° C | 59% | 1008.2 hPa | 0 mm | - | 65 W/m² | - |
| 1778013150 | 21.11° C | 59% | 1008.1 hPa | 0 mm | - | 105 W/m² | - |
| 1778012846 | 21.11° C | 59% | 1007.9 hPa | 0 mm | - | 76 W/m² | - |
| 1778012542 | 21.67° C | 59% | 1008.1 hPa | 0 mm | - | 81 W/m² | - |
| 1778012239 | 21.11° C | 58% | 1008.4 hPa | 0 mm | - | 116 W/m² | - |
| 1778011937 | 21.11° C | 59% | 1008.2 hPa | 0 mm | - | 88 W/m² | - |
| 1778011635 | 21.11° C | 60% | 1008.2 hPa | 0 mm | - | 94 W/m² | - |
| 1778011331 | 21.11° C | 59% | 1008.3 hPa | 0 mm | - | 82 W/m² | - |
| 1778011027 | 21.11° C | 58% | 1008.4 hPa | 0 mm | - | 98 W/m² | - |
| 1778010724 | 21.11° C | 59% | 1008.1 hPa | 0 mm | - | 41 W/m² | - |
| 1778010422 | 21.11° C | 59% | 1008.4 hPa | 0 mm | - | 45 W/m² | - |
| 1778010117 | 21.11° C | 58% | 1008.7 hPa | 0 mm | - | 85 W/m² | - |
| 1778009814 | 21.11° C | 58% | 1008.6 hPa | 0 mm | - | 65 W/m² | - |
| 1778009511 | 21.11° C | 58% | 1008.7 hPa | 0 mm | - | 90 W/m² | - |
| 1778009210 | 21.11° C | 58% | 1008.8 hPa | 0 mm | - | 98 W/m² | - |
| 1778008907 | 21.11° C | 57% | 1008.9 hPa | 0 mm | - | 77 W/m² | - |
| 1778008605 | 21.11° C | 58% | 1008.8 hPa | 0 mm | - | 84 W/m² | - |
| 1778008303 | 21.11° C | 58% | 1008.8 hPa | 0 mm | - | 44 W/m² | - |
| 1778007999 | 21.11° C | 57% | 1008.8 hPa | 0 mm | - | 42 W/m² | - |
| 1778007699 | 21.11° C | 58% | 1008.7 hPa | 0 mm | - | 69 W/m² | - |
| 1778007396 | 21.11° C | 57% | 1008.8 hPa | 0 mm | - | 58 W/m² | - |
| 1778007092 | 21.11° C | 57% | 1008.9 hPa | 0 mm | - | 65 W/m² | - |
| 1778006788 | 21.11° C | 56% | 1008.9 hPa | 0 mm | - | 55 W/m² | - |
| 1778006486 | 21.67° C | 56% | 1008.7 hPa | 0 mm | - | 103 W/m² | - |
| 1778006182 | 21.67° C | 55% | 1008.9 hPa | 0 mm | - | 96 W/m² | - |
* Rain latest hour (hover to see other rain measurements)
** Current wind speed in m/s (hover to see current wind gust speed)